Location: Ferchesar
(52.6477°N, 12.4298°E)
Time: 10:09:53
(UTC+01:00)

S-56A Canister/Altair - Pass Details

Date: 08 December 2021
Orbit: 633 x 2499 km, 38.9° (Epoch: 19 January)

Event Time Altitude Azimuth Distance (km) Brightness Sun altitude
Rises 23:27:37 0° 236° (WSW) 5,584 - -59.4°
Reaches altitude 10° 23:32:10 10° 228° (SW) 4,297 - -59.6°
Maximum altitude 23:41:11 31° 174° (S) 2,377 - -59.9°
Drops below altitude 10° 23:47:42 10° 116° (ESE) 3,052 - -60.0°
Sets 23:50:22 0° 105° (ESE) 3,781 - -60.1°
